Voltar ao catálogo

CZ-4B DEB

AtivoLEO
NORAD 40530·DEBRIS·🇨🇳 China

Lançado Oct 25, 2013 de Jiuquan Satellite Launch Center

Loading…

Próximas Passagens (próximas 24 horas)

TLE

AtualizadoSource: Space-Track

Época: Sep 14, 2026, 05:50 UTC

1 40530U 13057C   26257.24333400  .00001626  00000-0  27685-3 0  9995
2 40530  75.0466  97.3022 0169421 305.7691  52.7827 14.60707846605374

Acompanhe CZ-4B DEB em tempo real com AllMySat

Download on the App Store